This demonstration page uses our WeatherBlox Daily Observations layout. Learn more.

Left ArrowRight Arrow

Hourly Observations for September 18, 2019

Temp ( °F °C ) Dew Point ( °F °C ) Humidity (%) Winds ( mph kmh ) Pressure ( in mb ) Visibility ( mi km ) Precip ( " mm )
12:54 am 00:54 Clear 79 26.1 65 18.3 62 62 S 21 33 29.84 1011 10 16 0.00 0.00
2:54 am 02:54 Clear 77 25 65 18.3 66 66 S 16 26 29.85 1011 10 16 0.00 0.00
8:54 am 08:54 Mostly Sunny 76 24.4 66 18.9 72 72 SW 5 7 29.90 1012 10 16 0.00 0.00
9:54 am 09:54 Mostly Sunny 79 26.1 67 19.4 67 67 SSW 10 17 29.90 1012 10 16 0.00 0.00
10:54 am 10:54 Sunny 84 28.9 67 19.4 57 57 SW 14 22 29.90 1012 10 16 0.00 0.00
11:54 am 11:54 Sunny 87 30.6 65 18.3 48 48 WSW 15 24 29.89 1012 10 16 0.00 0.00
12:54 pm 12:54 Sunny 90 32.2 66 18.9 45 45 SSW 13 20 29.89 1012 10 16 0.00 0.00
1:54 pm 13:54 Sunny 90 32.2 66 18.9 45 45 SSW 9 15 29.88 1012 10 16 0.00 0.00
2:54 pm 14:54 Mostly Sunny 91 32.8 67 19.4 45 45 SSW 13 20 29.87 1012 10 16 0.00 0.00
3:54 pm 15:54 Mostly Cloudy 91 32.8 66 18.9 44 44 SSW 14 22 29.86 1011 10 16 0.00 0.00
4:54 pm 16:54 Mostly Cloudy 90 32.2 67 19.4 47 47 S 13 20 29.85 1011 10 16 0.00 0.00
5:30 pm 17:30 Partly Cloudy with Nearby Thunderstorms 91 32.8 66 18.9 44 44 S 13 20 29.80 1009 10 16 0.00 0.00
5:45 pm 17:45 Mostly Sunny 91 32.8 67 19.4 45 45 S 7 11 29.80 1009 10 16 0.00 0.00
5:54 pm 17:54 Partly Cloudy 90 32.2 69 20.6 50 50 SSE 15 24 29.85 1011 10 16 0.00 0.00
6:54 pm 18:54 Sunny 84 28.9 66 18.9 55 55 SE 17 28 29.87 1012 10 16 0.00 0.00
7:03 pm 19:03 Partly Cloudy with Nearby Thunderstorms 83 28.3 64 17.8 53 53 SE 17 28 29.83 1010 10 16 0.00 0.00
7:18 pm 19:18 Mostly Sunny 81 27.2 64 17.8 57 57 SE 13 20 29.85 1011 10 16 0.00 0.00
7:43 pm 19:43 Clear with Nearby Thunderstorms 82 27.8 64 17.8 55 55 SE 12 19 29.83 1010 10 16 0.00 0.00
7:54 pm 19:54 Clear with Nearby Thunderstorms 83 28.3 64 17.8 53 53 ESE 13 20 29.87 1012 10 16 0.00 0.00
8:16 pm 20:16 Mostly Cloudy 82 27.8 65 18.3 56 56 ESE 15 24 29.85 1011 10 16 0.00 0.00
8:54 pm 20:54 Clear 81 27.2 65 18.3 58 58 SSE 9 15 29.88 1012 10 16 0.00 0.00
9:54 pm 21:54 Clear 79 26.1 68 20 69 69 SSE 9 15 29.89 1012 10 16 0.00 0.00
10:54 pm 22:54 Clear 77 25 68 20 74 74 SSE 10 17 29.89 1012 10 16 0.00 0.00
11:54 pm 23:54 Partly Cloudy 75 23.9 68 20 79 79 S 6 9 29.90 1013 10 16 0.00 0.00

Powered by AerisWeather